Location: Newark
(44.5425°N, 10.7801°E)
Time: 02:02:07
(UTC+00:00)

N. Korean satellite - Pass Details

Date: 24 January 2020
Orbit: 456 x 505 km, 97.2° (Epoch: 25 February)

Event Time Altitude Azimuth Distance (km) Brightness Sun altitude
Rises 16:45:09 0° 187° (S) 2,462 10.6 -5.9°
Reaches altitude 10° 16:47:19 10° 198° (SSW) 1,593 9.8 -6.3°
Maximum altitude 16:50:25 32° 263° (W) 809 8.6 -6.8°
Drops below altitude 10° 16:53:33 10° 328° (NNW) 1,608 9.4 -7.3°
Sets 16:55:45 0° 339° (NNW) 2,491 10.2 -7.7°
